Tracking 32936 objects as of 17-Jan-2026
HD Live streaming from Space Station
objects crossing your sky now

STARLINK-33915

Track STARLINK-33915 now!
10-day predictions
STARLINK-33915 is classified as:


NORAD ID: 63708
Int'l Code: 2025-087M
Perigee: 481.5 km
Apogee: 483.2 km
Inclination: 53.2 °
Period: 94.1 minutes
Semi major axis: 6853 km
RCS: Unknown
Launch date: April 28, 2025
Source: United States (US)
Launch site: AIR FORCE WESTERN TEST RANGE (AFWTR)
Your satellite tracking list
Your tracking list is empty




NASA's NSSDC Master Catalog

Two Line Element Set (TLE):
1 63708U 25087M   26016.53313173  .00012971  00000-0  44928-3 0  9997
2 63708  53.1584 101.8617 0001220  97.3349 262.7790 15.30200224 41216
Source of the keplerian elements: AFSPC